Flag for Canada Weather past 2 weeks in Cranbrook, British Columbia, Canada

Now
48 °F

Partly sunny.


Feels Like: 43 °F
Forecast: 38 / 52 °F
Wind: 14 mph from Northwest

Location: Cranbrook


UV Index: 3 (Moderate)

Visibility: 25 mi


Pressure: 29.71 "Hg

Humidity: 27%

Dew point: 16 °F

Location of CranbrookLocation

Historic Weather in Cranbrook

°F

Cranbrook temperature yesterday

Maximum temperature yesterday: 52 °F (at 5:00 PM)
Minimum temperature yesterday: 39 °F (at 3:00 AM)
Average temperature yesterday: 45 °F

Past Weeks' High & Low Weather Summary

 TemperatureHumidityPressure
High68 °F (Apr 8, 2:00 PM)93% (Apr 12, 11:00 AM)30.44 "Hg (Apr 12, 11:00 AM)
Low23 °F (Apr 14, 6:00 AM)20% (Apr 14, 5:00 PM)29.62 "Hg (Apr 22, 9:00 PM)
Average44 °F56%29.96 "Hg
* Reported Apr 8 1:00 PM — Apr 23 1:00 PM, Cranbrook, Weather by CustomWeather, © 2014

Note: Actual official high and low records may vary slightly from our data, if they occured in-between our weather recording intervals... More about our weather records

Advertising

Historic Weather Conditions — Data for Previous 24 hours

 ConditionsComfort  
Time TempWeatherWind HumidityBarometerVisibility
1:00 PM
Apr 23
48 °FPartly sunny.7 mph29%29.71 "Hg25 mi
12:00 PM50 °FPartly sunny.8 mph30%29.71 "Hg25 mi
11:00 AM48 °FPartly sunny.7 mph27%29.72 "Hg25 mi
10:00 AM46 °FScattered clouds.5 mph50%29.72 "Hg25 mi
9:00 AM45 °FPassing clouds.10 mph57%29.73 "Hg25 mi
8:00 AM39 °FPassing clouds.12 mph52%29.74 "Hg25 mi
7:00 AM34 °FPassing clouds.9 mph60%29.74 "Hg25 mi
6:00 AM34 °FPassing clouds.12 mph60%29.73 "Hg25 mi
5:00 AM37 °FPassing clouds.9 mph52%29.70 "Hg25 mi
4:00 AM39 °FPartly cloudy.14 mph56%29.68 "Hg25 mi
3:00 AM41 °FPassing clouds.15 mph61%29.67 "Hg25 mi
2:00 AM39 °FPartly cloudy.15 mph70%29.67 "Hg25 mi
1:00 AM41 °FPassing clouds.13 mph61%29.65 "Hg25 mi
12:00 AM41 °FPartly cloudy.14 mph66%29.66 "Hg25 mi
11:00 PM
Apr 22
43 °FPassing clouds.14 mph66%29.64 "Hg25 mi
10:00 PM45 °FPartly cloudy.13 mph61%29.65 "Hg25 mi
9:00 PM45 °FBroken clouds.12 mph66%29.62 "Hg25 mi
8:00 PM46 °FBroken clouds.13 mph66%29.63 "Hg25 mi
7:00 PM50 °FMore clouds than sun.16 mph54%29.64 "Hg25 mi
6:00 PM52 °FMore clouds than sun.14 mph54%29.65 "Hg25 mi
5:00 PM52 °FMore clouds than sun.15 mph54%29.63 "Hg25 mi
4:00 PM50 °FMostly cloudy.10 mph67%29.64 "Hg25 mi
3:00 PM50 °FMostly cloudy.9 mph67%29.65 "Hg25 mi
2:00 PM48 °FMostly cloudy.9 mph71%29.66 "Hg20 mi
Weather by CustomWeather, © 2014

See weather overview